Total_Precipitation_Accumulation
1.55 2.00 2.62 3.22 3.90 4.88 5.43 5.48 5.10 4.21 3.53 2.99 2.73 2.46 2.21 1.98 1.69 1.37 1.15 1.03 0.99 0.89 0.90 0.86 0.84 0.85 0.82 0.83 0.98 1.10 1.14 1.01 1.18 1.35 1.21 1.00 0.84 0.79 0.77 0.72 0.74 0.73 0.77
1.38 2.01 2.78 3.52 4.02 4.45 4.70 4.62 4.09 3.26 2.74 2.38 2.29 2.09 1.86 1.50 1.33 1.16 1.03 0.90 0.84 0.78 0.75 0.77 0.71 0.67 0.72 0.72 0.75 0.87 0.90 0.82 0.93 1.08 1.09 0.90 0.81 0.68 0.48 0.52 0.55 0.55 0.69
1.59 2.36 3.16 3.77 3.89 3.80 3.51 3.13 2.81 2.41 2.25 2.18 2.00 1.78 1.67 1.39 1.14 0.91 0.81 0.73 0.64 0.57 0.55 0.53 0.52 0.54 0.55 0.58 0.64 0.72 0.79 0.74 0.69 0.77 0.90 0.78 0.68 0.60 0.49 0.43 0.46 0.54 0.62
1.70 2.42 2.97 3.10 3.10 2.87 2.50 2.23 2.12 2.03 1.92 1.83 1.69 1.38 1.15 1.08 0.93 0.81 0.74 0.67 0.55 0.49 0.46 0.43 0.41 0.41 0.40 0.48 0.47 0.57 0.69 0.71 0.61 0.60 0.63 0.63 0.61 0.59 0.57 0.51 0.44 0.49 0.53
1.27 1.50 1.71 1.78 1.84 1.76 1.82 1.85 1.90 1.91 1.81 1.72 1.60 1.41 1.14 1.06 1.01 0.97 0.92 0.81 0.67 0.56 0.48 0.46 0.42 0.40 0.35 0.38 0.42 0.51 0.61 0.68 0.62 0.55 0.58 0.66 0.65 0.56 0.56 0.55 0.53 0.56 0.45
0.78 0.87 0.93 0.96 1.15 1.17 1.26 1.38 1.44 1.55 1.63 1.57 1.39 1.28 1.14 1.08 1.05 0.95 0.82 0.70 0.63 0.59 0.51 0.50 0.52 0.47 0.43 0.40 0.40 0.45 0.49 0.60 0.68 0.65 0.60 0.63 0.65 0.55 0.51 0.45 0.44 0.52 0.46
0.62 0.74 0.80 0.83 0.97 0.90 0.91 1.04 1.12 1.13 1.20 1.19 1.11 1.07 1.08 1.04 0.96 0.85 0.74 0.62 0.49 0.46 0.45 0.45 0.47 0.49 0.50 0.49 0.48 0.48 0.47 0.52 0.60 0.60 0.61 0.59 0.57 0.60 0.60 0.56 0.48 0.51 0.55
0.49 0.57 0.55 0.62 0.70 0.63 0.67 0.80 0.90 0.91 0.92 0.94 0.95 0.92 0.96 0.85 0.80 0.85 0.75 0.63 0.52 0.46 0.45 0.44 0.42 0.45 0.50 0.53 0.59 0.55 0.54 0.57 0.56 0.51 0.64 0.66 0.57 0.66 0.71 0.74 0.78 0.71 0.72
0.35 0.40 0.34 0.37 0.46 0.52 0.56 0.64 0.77 0.82 0.78 0.81 0.84 0.80 0.85 0.85 0.83 0.81 0.72 0.60 0.61 0.53 0.51 0.49 0.52 0.56 0.59 0.63 0.66 0.61 0.58 0.60 0.56 0.57 0.66 0.70 0.74 0.77 0.72 0.83 0.92 0.94 0.88
0.26 0.26 0.27 0.26 0.32 0.42 0.52 0.61 0.70 0.75 0.73 0.75 0.76 0.66 0.75 0.82 0.88 0.82 0.72 0.64 0.67 0.60 0.61 0.60 0.59 0.63 0.63 0.63 0.67 0.65 0.70 0.73 0.72 0.75 0.78 0.76 0.80 0.88 0.78 0.83 0.91 0.92 0.99
0.24 0.22 0.20 0.21 0.25 0.31 0.43 0.53 0.66 0.71 0.71 0.72 0.79 0.84 0.83 0.74 0.80 0.80 0.79 0.79 0.81 0.72 0.73 0.73 0.74 0.73 0.74 0.78 0.82 0.82 0.87 0.94 1.03 1.05 1.02 1.00 1.01 1.01 0.96 1.00 0.99 0.92 1.01
0.21 0.23 0.22 0.20 0.24 0.27 0.33 0.42 0.52 0.63 0.67 0.70 0.80 0.86 0.91 0.82 0.80 0.81 0.83 0.85 0.91 0.96 0.93 0.87 0.86 0.81 0.84 0.93 0.95 0.97 0.94 0.93 0.96 1.13 1.33 1.32 1.30 1.21 1.08 1.14 1.09 1.04 1.19
0.28 0.25 0.29 0.30 0.29 0.32 0.34 0.42 0.51 0.64 0.74 0.75 0.78 0.85 0.88 0.84 0.82 0.92 0.99 0.97 1.05 1.12 1.13 1.09 0.99 0.89 0.87 0.88 0.92 0.99 1.00 1.01 1.10 1.24 1.36 1.45 1.55 1.41 1.28 1.23 1.20 1.22 1.29
0.30 0.26 0.26 0.28 0.31 0.40 0.43 0.50 0.67 0.65 0.63 0.71 0.77 0.82 0.85 0.88 0.91 0.97 1.04 1.05 1.09 1.13 1.17 1.17 1.14 1.08 0.96 0.88 0.89 0.92 0.96 1.11 1.28 1.34 1.27 1.35 1.59 1.64 1.55 1.40 1.31 1.31 1.36
0.31 0.26 0.23 0.25 0.34 0.43 0.45 0.51 0.58 0.69 0.71 0.83 0.93 0.99 1.07 1.14 1.17 1.21 1.20 1.17 1.19 1.20 1.27 1.33 1.31 1.23 1.10 0.93 0.94 1.01 0.97 1.09 1.17 1.16 1.09 1.07 1.23 1.44 1.55 1.43 1.37 1.37 1.36
0.30 0.30 0.32 0.33 0.35 0.41 0.48 0.54 0.54 0.64 0.78 0.96 1.09 1.18 1.31 1.40 1.49 1.62 1.72 1.63 1.53 1.58 1.65 1.60 1.50 1.39 1.08 1.03 1.00 0.98 1.00 1.06 1.06 1.05 1.02 0.92 0.86 0.93 1.11 1.27 1.39 1.46 1.39
0.43 0.43 0.46 0.45 0.44 0.44 0.48 0.52 0.59 0.72 0.89 1.09 1.28 1.39 1.53 1.67 1.81 1.91 1.95 1.90 1.93 1.99 2.01 1.91 1.73 1.59 1.47 1.30 1.10 1.00 0.97 0.97 0.97 1.00 0.99 0.82 0.74 0.83 0.85 0.99 1.10 1.21 1.27
0.48 0.49 0.59 0.61 0.56 0.56 0.62 0.70 0.81 0.96 1.15 1.33 1.49 1.65 1.67 1.71 1.79 1.87 1.83 1.84 1.96 2.03 2.02 1.92 1.79 1.70 1.60 1.44 1.19 1.09 0.93 0.95 0.98 1.01 1.01 0.96 0.90 0.87 0.91 0.94 0.94 0.94 1.00
0.54 0.55 0.61 0.69 0.71 0.70 0.76 0.83 0.87 0.98 1.17 1.34 1.43 1.49 1.60 1.71 1.75 1.77 1.79 1.83 1.86 1.78 1.68 1.63 1.65 1.64 1.67 1.53 1.25 1.14 1.04 1.12 1.13 1.12 1.10 1.09 1.03 1.06 0.90 0.85 0.88 0.89 0.91
0.53 0.55 0.55 0.59 0.66 0.75 0.78 0.81 0.88 0.99 1.19 1.33 1.36 1.37 1.49 1.61 1.69 1.73 1.77 1.73 1.69 1.64 1.59 1.53 1.55 1.57 1.58 1.52 1.21 1.11 1.07 1.17 1.19 1.22 1.20 1.14 1.01 0.96 0.82 0.78 0.85 0.84 0.85
0.53 0.53 0.57 0.58 0.61 0.71 0.76 0.84 0.94 1.01 1.07 1.17 1.24 1.31 1.46 1.57 1.62 1.69 1.69 1.67 1.63 1.65 1.65 1.59 1.50 1.47 1.47 1.45 1.17 1.04 0.97 1.10 1.22 1.21 1.16 1.13 1.03 0.81 0.73 0.70 0.74 0.77 0.80
0.60 0.59 0.60 0.71 0.76 0.79 0.79 0.83 0.83 0.82 0.90 0.96 1.03 1.06 1.17 1.31 1.37 1.47 1.47 1.50 1.47 1.44 1.42 1.39 1.31 1.28 1.29 1.23 1.11 0.92 0.83 0.90 1.05 1.14 1.17 1.19 1.03 0.78 0.66 0.56 0.53 0.50 0.48
0.71 0.68 0.66 0.68 0.73 0.83 0.87 0.92 0.87 0.82 0.80 0.80 0.81 0.84 0.92 1.09 1.25 1.30 1.28 1.30 1.29 1.27 1.24 1.22 1.18 1.15 1.13 1.07 0.87 0.73 0.63 0.67 0.80 0.98 1.11 1.04 0.87 0.72 0.59 0.51 0.46 0.43 0.41
0.50 0.57 0.61 0.67 0.72 0.72 0.73 0.79 0.82 0.81 0.83 0.83 0.84 0.86 0.92 1.02 1.26 1.38 1.30 1.23 1.21 1.18 1.17 1.13 1.13 1.15 1.18 1.12 0.92 0.71 0.56 0.60 0.73 0.84 0.89 0.90 0.89 0.85 0.78 0.67 0.56 0.47 0.48
0.36 0.40 0.45 0.48 0.51 0.51 0.55 0.60 0.64 0.72 0.76 0.73 0.71 0.72 0.79 0.92 1.12 1.27 1.26 1.12 1.09 1.10 1.12 1.10 1.08 1.03 1.00 0.98 0.86 0.72 0.69 0.73 0.81 0.81 0.88 0.90 0.97 1.02 1.02 0.96 0.86 0.79 0.76
0.33 0.38 0.41 0.43 0.45 0.47 0.54 0.63 0.70 0.78 0.81 0.77 0.72 0.70 0.72 0.82 1.01 1.21 1.28 1.12 0.93 0.92 0.91 0.86 0.82 0.79 0.72 0.67 0.64 0.61 0.59 0.64 0.69 0.67 0.83 0.96 1.06 1.13 1.16 1.16 1.08 0.99 0.90